Temp
-4 -4 -4 -4 -5 -5 -5 -5 -5 -5 -6 -6 -6 -6 -6 -6 -6 -6 -6 -6 -6 -6 -6 -6 -6 -6 -6 -6 -7 -7 -7 -6 -6 -6 -6 -7 -7 -7 -7 -7 -7 -7 -8
-4 -4 -4 -4 -5 -5 -5 -5 -5 -5 -5 -5 -6 -6 -6 -5 -6 -6 -6 -5 -5 -5 -6 -6 -6 -6 -6 -6 -6 -7 -7 -7 -7 -7 -7 -7 -6 -7 -7 -7 -7 -7 -7
-4 -4 -4 -4 -4 -4 -5 -5 -5 -5 -5 -5 -5 -5 -5 -5 -5 -5 -5 -5 -5 -6 -6 -6 -6 -6 -6 -6 -7 -6 -7 -6 -7 -7 -6 -6 -7 -7 -7 -7 -7 -7 -7
-4 -4 -4 -4 -4 -4 -5 -5 -5 -5 -5 -5 -5 -5 -5 -5 -5 -5 -5 -6 -6 -6 -6 -6 -6 -6 -6 -6 -6 -5 -6 -6 -6 -6 -6 -6 -6 -7 -7 -7 -7 -7 -7
-4 -4 -4 -4 -4 -4 -4 -5 -5 -5 -5 -5 -5 -5 -5 -5 -5 -6 -6 -6 -5 -6 -6 -6 -5 -6 -6 -6 -6 -6 -6 -7 -7 -7 -7 -7 -6 -6 -7 -7 -7 -7 -7
-4 -4 -4 -4 -4 -4 -4 -5 -5 -4 -5 -5 -5 -5 -5 -5 -6 -6 -6 -6 -6 -6 -5 -5 -6 -5 -6 -6 -7 -7 -7 -7 -7 -7 -7 -7 -7 -7 -7 -6 -6 -7 -7
-4 -4 -4 -4 -3 -4 -4 -5 -5 -5 -5 -5 -5 -5 -5 -6 -6 -6 -5 -5 -5 -5 -5 -5 -5 -6 -7 -7 -7 -7 -7 -7 -6 -7 -6 -7 -7 -7 -7 -7 -7 -6 -7
-4 -4 -4 -4 -3 -4 -4 -4 -5 -5 -5 -5 -5 -6 -5 -5 -5 -5 -5 -4 -4 -5 -5 -5 -6 -6 -5 -6 -7 -7 -7 -7 -6 -6 -7 -6 -7 -6 -7 -7 -7 -8 -7
-4 -4 -4 -4 -4 -4 -5 -5 -5 -5 -5 -5 -5 -5 -5 -5 -5 -5 -5 -4 -5 -5 -5 -5 -5 -5 -6 -6 -6 -6 -6 -5 -6 -5 -6 -6 -5 -6 -7 -6 -7 -7 -6
-5 -4 -4 -4 -4 -4 -5 -5 -5 -5 -5 -5 -5 -5 -5 -4 -5 -5 -5 -5 -5 -5 -5 -5 -5 -6 -6 -6 -6 -7 -6 -5 -6 -5 -6 -6 -6 -5 -6 -6 -6 -6 -6
-4 -4 -4 -5 -5 -4 -5 -5 -5 -5 -5 -4 -5 -5 -5 -5 -5 -5 -5 -5 -5 -5 -5 -5 -5 -6 -5 -6 -6 -6 -6 -6 -6 -6 -7 -7 -7 -6 -6 -6 -6 -6 -7
-4 -4 -4 -5 -5 -5 -5 -5 -5 -5 -5 -4 -4 -4 -4 -5 -4 -4 -4 -4 -5 -4 -5 -5 -5 -6 -6 -6 -6 -6 -6 -6 -6 -6 -6 -6 -6 -6 -5 -5 -6 -6 -7
-4 -4 -4 -4 -4 -4 -5 -5 -4 -4 -4 -4 -4 -4 -4 -4 -4 -4 -4 -4 -5 -5 -4 -5 -5 -6 -6 -6 -5 -6 -6 -6 -6 -5 -5 -5 -6 -6 -6 -6 -6 -7 -7
-4 -4 -4 -4 -4 -4 -5 -5 -4 -4 -4 -4 -4 -4 -4 -4 -4 -5 -5 -5 -5 -5 -5 -5 -5 -5 -5 -6 -5 -5 -5 -6 -6 -6 -6 -6 -6 -6 -6 -6 -6 -6 -6
-4 -4 -5 -4 -4 -4 -4 -4 -4 -3 -3 -4 -3 -4 -4 -4 -4 -5 -5 -4 -4 -4 -4 -5 -4 -5 -5 -6 -6 -5 -5 -5 -5 -6 -6 -6 -6 -6 -6 -6 -6 -6 -6
-4 -4 -4 -4 -4 -4 -3 -4 -4 -4 -3 -4 -3 -3 -4 -4 -4 -4 -4 -4 -4 -4 -4 -4 -4 -4 -5 -5 -6 -6 -6 -5 -5 -6 -6 -6 -6 -7 -7 -6 -6 -6 -7
-4 -4 -4 -4 -4 -4 -4 -4 -4 -3 -3 -3 -3 -3 -4 -3 -5 -4 -4 -4 -4 -4 -4 -4 -4 -4 -5 -6 -6 -6 -6 -5 -6 -7 -7 -6 -6 -7 -7 -6 -6 -6 -6
-5 -5 -5 -4 -4 -4 -4 -4 -3 -3 -2 -2 -3 -3 -3 -3 -4 -4 -4 -4 -4 -4 -4 -4 -4 -4 -5 -5 -5 -5 -5 -5 -6 -6 -6 -7 -7 -6 -6 -6 -6 -6 -6
-4 -4 -4 -4 -4 -4 -4 -4 -4 -3 -3 -3 -3 -3 -3 -3 -3 -3 -4 -3 -3 -4 -4 -4 -4 -5 -5 -5 -5 -5 -5 -5 -6 -7 -7 -6 -6 -6 -7 -6 -6 -6 -6
-4 -4 -4 -4 -4 -4 -4 -4 -3 -3 -3 -3 -3 -3 -3 -3 -3 -4 -4 -4 -4 -4 -4 -5 -5 -5 -5 -5 -5 -4 -5 -5 -5 -6 -6 -6 -6 -6 -6 -6 -6 -6 -5
-4 -4 -4 -4 -4 -3 -4 -3 -3 -3 -3 -2 -3 -3 -3 -3 -3 -3 -3 -4 -4 -4 -5 -5 -5 -5 -5 -5 -5 -5 -5 -5 -5 -5 -5 -6 -6 -6 -6 -6 -6 -6 -6
-4 -4 -4 -4 -4 -4 -4 -4 -4 -3 -3 -2 -2 -3 -3 -3 -3 -4 -4 -4 -4 -4 -5 -5 -5 -5 -5 -5 -5 -5 -5 -5 -5 -5 -5 -5 -5 -5 -6 -6 -6 -7 -7
-4 -4 -4 -4 -4 -4 -4 -4 -4 -3 -3 -3 -3 -3 -4 -4 -4 -4 -4 -4 -4 -5 -5 -5 -6 -5 -5 -6 -6 -5 -5 -5 -5 -4 -5 -5 -5 -6 -6 -6 -7 -7 -7
-5 -5 -5 -5 -4 -4 -4 -4 -4 -4 -4 -4 -4 -4 -4 -4 -4 -4 -4 -5 -5 -5 -5 -5 -6 -6 -6 -6 -5 -5 -5 -5 -5 -5 -5 -5 -6 -6 -7 -7 -7 -7 -7
-5 -5 -5 -5 -5 -5 -4 -4 -4 -4 -4 -4 -4 -4 -4 -4 -4 -4 -5 -5 -5 -5 -5 -5 -6 -6 -6 -5 -5 -5 -5 -5 -5 -5 -5 -5 -6 -7 -7 -7 -7 -7 -7
-6 -5 -5 -5 -5 -5 -5 -5 -5 -5 -4 -4 -4 -4 -4 -4 -4 -5 -5 -5 -5 -5 -6 -5 -6 -6 -5 -5 -5 -5 -5 -5 -5 -5 -5 -6 -7 -7 -7 -7 -7 -8 -8
Height
5898 5898 5898 5898 5897 5897 5897 5898 5897 5897 5897 5896 5896 5896 5896 5896 5896 5896 5896 5896 5897 5898 5899 5898 5898 5897 5896 5895 5895 5895 5893 5893 5893 5892 5891 5891 5890 5890 5889 5889 5887 5886 5885
5900 5900 5900 5899 5899 5899 5899 5899 5899 5899 5899 5898 5899 5899 5900 5900 5899 5899 5899 5899 5900 5900 5901 5899 5899 5898 5898 5898 5896 5895 5895 5894 5893 5893 5892 5890 5890 5891 5890 5888 5887 5886 5887
5903 5902 5901 5901 5901 5901 5901 5901 5901 5901 5901 5901 5901 5902 5902 5901 5901 5901 5902 5902 5902 5901 5901 5901 5903 5902 5901 5899 5897 5899 5897 5897 5897 5896 5894 5893 5891 5889 5890 5890 5888 5888 5888
5905 5904 5903 5903 5903 5904 5904 5904 5904 5904 5904 5904 5904 5905 5905 5904 5904 5904 5904 5904 5904 5904 5903 5902 5903 5903 5901 5899 5900 5900 5899 5898 5897 5897 5898 5897 5896 5893 5891 5891 5890 5889 5887
5907 5906 5905 5905 5905 5906 5906 5906 5907 5907 5907 5907 5908 5908 5907 5907 5907 5907 5907 5906 5905 5905 5903 5904 5904 5903 5903 5902 5902 5902 5903 5901 5900 5898 5897 5897 5895 5894 5894 5893 5891 5889 5887
5909 5908 5907 5908 5908 5908 5907 5908 5908 5909 5910 5910 5911 5910 5910 5910 5909 5909 5909 5908 5907 5907 5908 5908 5907 5905 5905 5905 5903 5902 5899 5900 5898 5896 5895 5896 5896 5894 5893 5892 5890 5889 5889
5910 5910 5910 5910 5911 5911 5911 5911 5911 5911 5912 5912 5912 5912 5913 5913 5913 5913 5913 5911 5911 5911 5911 5911 5910 5909 5908 5905 5903 5902 5901 5898 5896 5896 5896 5893 5892 5893 5893 5894 5893 5890 5889
5912 5911 5912 5913 5913 5914 5913 5914 5914 5914 5914 5915 5915 5915 5916 5917 5917 5917 5916 5914 5914 5914 5914 5913 5911 5909 5907 5905 5903 5901 5900 5898 5895 5894 5893 5892 5892 5893 5893 5892 5891 5889 5888
5913 5913 5914 5915 5916 5916 5916 5917 5917 5917 5917 5917 5917 5917 5919 5919 5919 5919 5918 5917 5917 5917 5916 5916 5913 5911 5909 5907 5904 5902 5900 5899 5896 5894 5894 5893 5891 5890 5890 5890 5888 5887 5886
5916 5916 5917 5918 5918 5919 5919 5919 5919 5919 5920 5919 5920 5920 5921 5921 5922 5922 5920 5919 5919 5919 5919 5919 5916 5914 5912 5910 5907 5903 5898 5900 5898 5896 5893 5892 5892 5891 5888 5886 5886 5883 5883
5918 5918 5920 5920 5920 5920 5920 5921 5921 5921 5922 5922 5923 5923 5925 5925 5925 5924 5923 5921 5921 5921 5921 5919 5918 5916 5914 5911 5907 5905 5903 5901 5899 5895 5892 5890 5889 5888 5886 5883 5881 5881 5880
5921 5921 5921 5922 5922 5922 5922 5922 5921 5923 5924 5925 5925 5925 5926 5927 5927 5926 5925 5923 5922 5922 5921 5919 5919 5916 5914 5910 5907 5906 5904 5902 5898 5894 5891 5889 5887 5886 5884 5883 5880 5877 5875
5923 5923 5923 5924 5924 5924 5924 5923 5923 5925 5926 5926 5927 5927 5928 5929 5928 5927 5926 5924 5924 5922 5922 5920 5919 5916 5914 5911 5908 5905 5905 5903 5898 5895 5891 5890 5888 5884 5882 5879 5876 5874 5869
5924 5925 5926 5926 5926 5926 5926 5925 5925 5926 5927 5928 5928 5928 5928 5929 5929 5928 5927 5925 5923 5922 5922 5920 5917 5916 5913 5911 5908 5906 5903 5901 5898 5896 5892 5891 5888 5884 5880 5877 5874 5872 5869
5927 5927 5927 5927 5928 5928 5927 5926 5927 5928 5929 5929 5929 5930 5930 5930 5930 5929 5928 5926 5924 5923 5922 5921 5919 5916 5914 5911 5907 5905 5903 5902 5899 5896 5893 5890 5887 5884 5880 5876 5873 5870 5867
5929 5929 5929 5929 5929 5929 5929 5928 5929 5931 5931 5931 5931 5931 5932 5931 5930 5930 5930 5927 5924 5923 5922 5920 5918 5916 5914 5911 5908 5904 5903 5902 5900 5897 5893 5891 5887 5882 5878 5874 5870 5868 5865
5931 5931 5930 5930 5930 5930 5930 5929 5931 5931 5931 5931 5931 5931 5931 5931 5931 5931 5930 5927 5925 5923 5922 5921 5919 5917 5915 5911 5908 5907 5904 5900 5897 5893 5890 5888 5885 5882 5877 5873 5868 5865 5861
5935 5934 5934 5933 5933 5932 5931 5932 5932 5931 5931 5932 5932 5933 5934 5933 5932 5930 5931 5929 5927 5925 5922 5921 5918 5916 5913 5911 5910 5907 5903 5897 5892 5890 5886 5884 5882 5879 5874 5870 5865 5860 5857
5936 5936 5936 5936 5936 5935 5935 5935 5935 5934 5933 5932 5932 5932 5932 5933 5932 5930 5930 5930 5928 5926 5923 5921 5918 5915 5913 5912 5910 5905 5901 5896 5891 5888 5884 5882 5879 5875 5869 5864 5860 5857 5853
5936 5936 5936 5936 5936 5935 5935 5936 5935 5935 5934 5933 5933 5932 5932 5931 5931 5929 5929 5929 5927 5925 5922 5919 5916 5913 5911 5908 5905 5902 5899 5896 5892 5887 5884 5880 5876 5871 5866 5862 5858 5854 5851
5935 5936 5936 5936 5935 5935 5935 5935 5934 5935 5934 5933 5932 5933 5932 5931 5931 5929 5928 5928 5925 5922 5920 5917 5915 5913 5910 5907 5905 5901 5897 5894 5889 5887 5884 5879 5874 5869 5863 5859 5855 5851 5848
5934 5935 5936 5935 5935 5935 5935 5934 5933 5934 5933 5932 5931 5931 5932 5931 5930 5929 5927 5926 5923 5921 5917 5916 5914 5912 5909 5906 5904 5900 5896 5893 5889 5887 5883 5878 5873 5867 5860 5856 5851 5848 5844
5932 5933 5933 5934 5934 5934 5934 5933 5933 5932 5932 5931 5930 5930 5931 5930 5929 5928 5927 5925 5923 5921 5918 5916 5913 5911 5908 5905 5903 5900 5897 5894 5890 5886 5881 5876 5870 5863 5858 5852 5847 5843 5840
5931 5931 5931 5931 5932 5932 5932 5932 5932 5931 5931 5931 5930 5929 5929 5929 5928 5927 5926 5924 5922 5920 5918 5916 5913 5909 5907 5906 5903 5899 5896 5892 5888 5884 5878 5872 5865 5859 5852 5847 5841 5838 5835
5930 5930 5931 5931 5931 5931 5930 5930 5930 5930 5929 5929 5929 5929 5928 5928 5926 5925 5924 5922 5921 5918 5915 5913 5911 5909 5907 5906 5904 5901 5897 5893 5888 5882 5876 5869 5862 5854 5848 5842 5838 5833 5827
5929 5931 5930 5931 5930 5930 5930 5930 5930 5930 5929 5929 5928 5927 5927 5925 5924 5922 5921 5920 5918 5915 5914 5913 5911 5910 5908 5906 5903 5900 5897 5892 5886 5880 5873 5865 5859 5851 5844 5837 5832 5827 5822
Wind_Speed
10 11 11 11 12 14 12 12 11 10 10 9 10 13 15 16 15 15 15 14 13 13 15 14 15 16 16 14 14 13 12 12 11 11 12 12 12 11 13 12 9 7 6
8 11 10 11 13 13 12 11 10 10 10 10 11 12 14 15 15 15 14 14 14 14 16 17 17 15 14 12 10 11 12 11 9 10 9 10 9 9 10 10 10 8 6
7 11 11 11 12 11 11 11 10 10 11 13 12 14 15 15 17 17 15 15 15 16 18 17 18 17 15 14 13 14 11 11 10 9 6 6 5 8 7 6 7 7 7
8 11 10 11 11 11 10 11 12 14 15 15 15 16 16 16 16 14 16 17 18 19 19 18 18 17 16 16 16 16 16 14 12 10 11 7 6 5 5 4 5 7 7
11 12 10 12 12 11 11 13 16 16 16 16 16 17 16 15 14 15 18 20 19 19 18 18 17 16 17 19 20 20 20 17 15 13 14 10 10 9 6 2 2 4 4
12 12 11 12 12 10 12 15 15 16 18 18 17 15 13 13 14 16 20 19 18 19 19 20 18 20 21 22 22 22 22 19 15 14 13 14 15 12 11 6 2 1 1
12 12 13 12 13 12 13 14 14 14 15 16 15 13 13 15 17 20 21 18 18 18 18 17 18 22 21 21 19 18 18 19 18 13 15 9 12 13 12 13 11 6 4
12 14 12 13 12 13 12 12 12 12 13 14 13 14 16 18 19 19 18 15 16 16 16 18 20 20 24 21 20 20 18 16 15 16 11 12 9 10 12 7 9 10 9
14 15 13 12 13 11 12 11 11 12 13 14 14 17 18 18 17 17 15 14 14 14 17 20 21 22 21 21 21 19 18 20 14 15 15 14 18 20 17 10 10 11 13
13 13 11 12 13 12 11 12 13 14 15 15 15 16 17 17 16 16 13 12 12 14 17 15 17 19 18 20 20 26 10 17 12 13 13 13 14 14 14 11 8 8 16
11 11 10 9 12 10 11 12 13 13 14 15 16 16 15 15 14 13 11 12 12 13 15 16 16 16 18 20 20 21 17 22 16 11 11 15 15 13 13 10 16 21 21
10 11 11 13 13 12 11 13 14 14 14 14 17 15 14 14 12 11 12 11 11 13 14 14 14 15 15 19 22 18 17 17 19 14 12 18 15 10 14 17 15 14 15
10 10 9 11 12 14 13 12 14 14 12 13 11 13 13 12 11 11 9 10 11 15 17 17 13 15 16 15 20 16 16 17 14 12 13 14 14 14 16 19 19 19 22
11 11 10 12 12 11 13 11 12 12 11 11 11 10 9 10 8 8 7 11 14 15 14 16 14 16 13 13 15 14 20 19 16 15 13 10 16 14 15 13 14 16 19
12 13 11 12 11 11 12 12 11 9 9 7 7 7 7 5 7 7 4 10 12 15 16 16 15 15 13 13 14 16 19 18 15 19 17 21 16 17 19 15 16 11 11
13 13 14 13 11 11 11 13 8 8 7 5 5 5 5 6 7 7 6 10 15 15 16 15 19 18 14 14 16 17 18 18 17 18 18 15 13 17 21 23 21 15 14
14 12 13 12 11 12 13 12 8 5 5 6 5 5 5 5 5 5 9 12 14 15 16 15 15 16 13 14 16 17 20 22 21 21 18 17 16 17 22 22 21 19 18
11 12 11 11 11 11 11 9 7 4 3 4 4 4 6 5 4 7 9 10 13 15 16 17 18 17 18 16 15 18 18 23 22 20 20 18 17 19 24 23 21 17 14
7 7 7 8 8 9 9 8 6 4 3 3 1 4 5 5 4 5 7 10 12 13 13 14 17 19 17 17 18 20 22 25 23 17 16 19 19 23 27 29 24 19 15
6 5 4 4 5 6 5 4 4 2 1 3 3 1 5 6 6 5 7 10 12 14 15 17 19 20 20 20 22 22 20 17 21 23 21 22 24 28 29 28 25 17 16
5 4 1 1 1 2 2 3 3 3 4 3 1 3 7 6 5 5 8 10 13 16 16 19 20 18 18 18 20 20 20 21 24 24 23 25 27 30 30 30 25 20 16
3 2 1 2 3 3 3 4 4 4 4 3 3 3 3 4 4 5 9 12 14 15 17 18 18 18 16 14 15 17 20 23 24 24 24 26 28 29 30 31 28 21 20
5 6 6 3 4 5 5 5 5 7 6 4 1 2 3 2 3 5 8 11 13 14 15 15 16 15 14 13 12 14 17 20 23 26 25 27 28 29 31 31 29 23 17
7 7 7 7 7 6 7 7 6 6 7 4 3 2 5 3 2 6 8 10 10 11 11 13 13 10 11 11 12 15 18 21 24 26 29 32 33 32 32 30 27 20 19
3 1 1 2 3 2 3 4 4 5 6 5 3 3 4 7 7 7 9 11 8 7 9 11 8 8 8 9 12 15 18 21 25 29 32 33 34 33 32 29 21 23 25
4 3 2 3 3 4 4 5 5 6 7 6 5 4 6 8 10 10 11 10 7 5 7 8 5 5 5 8 12 16 19 23 27 30 34 36 35 33 31 27 26 26 29
Wind_Direction
91 80 91 98 91 88 80 76 77 73 78 79 82 86 87 86 94 89 86 86 87 84 81 85 83 77 73 72 76 82 86 82 84 90 88 85 86 82 85 79 78 100 122
88 87 96 93 88 82 78 69 63 67 74 75 77 79 85 88 91 92 88 81 82 86 90 88 83 79 78 72 69 71 75 78 82 80 72 85 85 75 68 78 70 77 117
85 94 94 86 76 72 71 66 66 66 69 70 76 84 84 88 88 83 84 88 87 80 73 69 66 59 56 54 49 52 54 58 79 40 48 63 80 96 87 83 86 85 115
95 93 85 75 66 66 75 83 77 76 80 86 85 82 86 82 82 84 81 77 70 64 60 59 58 61 61 61 59 52 50 41 44 54 52 51 43 64 82 102 110 117 123
100 85 77 69 61 65 85 88 81 84 87 90 90 90 88 88 86 76 69 64 64 66 65 62 56 53 50 44 40 39 45 41 34 26 27 27 34 40 42 32 74 124 149
94 86 76 69 71 72 84 83 83 87 88 88 88 91 89 86 82 75 70 67 63 62 59 56 51 47 48 46 41 35 27 35 26 21 23 22 22 15 7 360 23 328 241
92 87 79 78 79 87 88 85 81 83 90 95 98 99 91 81 73 70 69 68 67 62 57 55 50 42 41 35 35 34 31 17 16 9 9 17 26 22 14 354 341 341 302
93 86 82 84 87 95 92 90 88 90 97 97 96 92 84 80 77 72 71 69 64 58 51 46 42 33 32 26 17 14 13 11 13 11 8 350 343 13 11 349 328 316 310
91 90 92 92 90 86 91 91 89 89 91 94 94 88 84 77 73 72 66 59 54 51 44 42 26 25 22 14 3 353 346 350 337 0 355 349 340 327 328 315 307 312 320
90 92 97 99 93 90 94 92 93 100 103 103 95 85 83 82 77 73 70 61 46 44 43 40 27 19 16 12 358 2 21 360 9 342 346 331 320 328 333 298 313 4 321
102 96 92 97 101 101 89 97 94 98 93 99 90 82 75 75 72 74 68 55 42 34 34 27 22 15 1 360 10 16 21 28 25 336 334 326 308 305 313 322 285 269 293
102 90 97 94 99 104 104 101 103 93 91 90 83 75 73 72 66 60 55 47 34 26 29 21 21 12 6 360 4 16 37 22 11 14 6 2 355 315 302 296 303 291 277
100 100 91 102 97 100 95 96 95 94 93 91 71 78 70 62 57 53 51 44 36 29 20 11 20 25 12 358 8 19 16 13 14 4 10 353 355 346 333 319 306 293 276
100 100 108 106 99 92 90 86 85 86 88 82 82 75 66 60 57 49 46 41 34 12 23 13 10 17 22 1 3 11 9 5 0 359 12 3 344 345 349 351 344 311 307
109 109 108 107 102 98 95 88 79 73 84 79 73 77 67 63 53 19 16 15 19 20 21 13 15 21 22 9 353 0 2 7 2 1 358 7 14 359 355 338 323 319 314
104 103 110 106 107 101 96 94 74 89 82 65 51 51 31 26 50 358 26 27 24 16 26 14 15 17 15 11 355 352 351 353 352 356 353 355 351 342 348 333 328 314 281
99 99 94 96 93 93 94 92 79 93 85 76 47 19 9 8 20 2 16 29 19 13 15 18 12 16 14 8 348 345 344 343 346 345 341 337 340 345 351 345 336 326 319
103 101 100 98 92 89 84 87 88 78 74 63 18 346 345 352 354 350 14 30 25 14 11 5 5 8 11 6 353 351 357 3 355 352 350 347 341 350 345 342 339 326 305
127 116 105 97 92 90 89 86 91 97 101 102 47 339 331 346 1 6 24 16 17 11 12 6 360 5 8 9 18 17 16 23 11 360 354 350 350 345 347 344 340 326 319
142 121 109 100 95 85 74 77 68 60 170 156 157 357 348 3 18 19 16 8 7 11 14 10 2 0 3 9 13 13 7 5 1 2 1 349 346 342 339 340 338 327 313
162 146 151 57 8 73 47 17 30 345 349 322 42 205 4 358 3 355 356 4 6 9 12 7 1 359 359 6 11 4 3 358 358 358 345 339 339 337 338 337 336 324 313
180 223 215 304 319 319 313 327 333 312 324 329 332 14 358 336 347 331 348 358 9 5 6 360 353 348 2 5 5 5 359 0 4 7 2 356 350 342 337 333 332 325 309
222 255 273 253 264 285 293 299 299 299 297 293 270 280 283 286 323 331 345 352 6 1 358 358 349 348 7 11 11 9 5 13 10 11 7 2 352 342 334 334 339 336 321
244 263 265 275 275 270 282 293 297 287 286 277 261 240 277 268 302 327 337 345 355 353 358 354 352 355 7 16 24 29 27 21 17 10 6 358 350 345 339 342 337 333 319
161 171 232 234 266 292 316 321 323 308 297 302 295 255 268 297 301 313 336 339 333 352 357 351 358 355 12 35 32 21 16 14 10 6 2 355 353 348 342 343 340 329 317
92 71 18 1 339 336 330 324 321 313 304 299 290 276 274 286 300 318 330 326 319 353 349 350 356 7 40 22 17 12 8 6 5 1 359 357 355 348 350 346 337 327 322